^^
Saratoga-Weather Station Historical Data
Daily Summary for August 1, 2021 Units:  Metric    English   Both
Daily Weekly Monthly Yearly Custom
  High: Low: Average:
Temperature: 2.8 °C 2.2 °C 2.5 °C
Dew Point: 2.5 °C 1.8 °C 2.1 °C
Humidity: 98% 97% 97%
Wind Speed: 3.2km/h 0km/h 0.4km/h
Wind Gust: 4.8km/h - -
Wind- - East
Pressure: 991.5 hPa 989.2 hPa -
Precipitation: 1.8 mm    
Historical Graphs
 
 
Tabular Data for August 1, 2021
Time Temperature Dew Point Pressure Wind Wind Speed Wind Gust Humidity Rainfall Rate (Hourly) solar
00:04 2.2 °C 1.8 °C 991.5 hPa Calm   3.2 km/h 97% 1.0 mm 0 W/m2
00:09 2.2 °C 1.8 °C 991.5 hPa SE 1.4 km/h 3.2 km/h 97% 0.8 mm 0 W/m2
00:14 2.2 °C 1.8 °C 991.2 hPa SE 1.4 km/h 3.2 km/h 97% 1.0 mm 0 W/m2
00:19 2.2 °C 1.8 °C 991.2 hPa ESE 3.2 km/h 3.2 km/h 97% 1.0 mm 0 W/m2
00:24 2.2 °C 1.8 °C 991.2 hPa NE 1.4 km/h 4.8 km/h 97% 1.0 mm 0 W/m2
00:29 2.2 °C 1.8 °C 991.2 hPa Calm     97% 1.0 mm 0 W/m2
00:34 2.2 °C 1.8 °C 990.9 hPa ENE 3.2 km/h 4.8 km/h 97% 1.0 mm 0 W/m2
00:39 2.3 °C 1.9 °C 991.2 hPa Calm     97% 1.0 mm 0 W/m2
00:44 2.3 °C 1.9 °C 990.9 hPa ESE 1.4 km/h 1.6 km/h 97% 0.8 mm 0 W/m2
00:49 2.3 °C 1.9 °C 990.9 hPa ESE 1.4 km/h 3.2 km/h 97% 1.0 mm 0 W/m2
00:54 2.3 °C 1.9 °C 990.9 hPa Calm   1.6 km/h 97% 1.0 mm 0 W/m2
00:59 2.3 °C 1.9 °C 990.9 hPa Calm     97% 1.0 mm 0 W/m2
01:04 2.3 °C 1.9 °C 990.9 hPa ESE 1.4 km/h 1.6 km/h 97% 1.0 mm 0 W/m2
01:09 2.3 °C 1.9 °C 990.9 hPa Calm     97% 1.0 mm 0 W/m2
01:14 2.3 °C 1.9 °C 990.9 hPa Calm     97% 0.8 mm 0 W/m2
01:19 2.3 °C 1.9 °C 990.9 hPa Calm   3.2 km/h 97% 1.0 mm 0 W/m2
01:24 2.3 °C 1.9 °C 990.9 hPa Calm     97% 0.8 mm 0 W/m2
01:29 2.4 °C 2 °C 990.5 hPa ESE 1.4 km/h 3.2 km/h 97% 0.8 mm 0 W/m2
01:34 2.4 °C 2 °C 990.5 hPa ENE 1.4 km/h 1.6 km/h 97% 0.5 mm 0 W/m2
01:39 2.4 °C 2 °C 990.5 hPa Calm     97% 0.5 mm 0 W/m2
01:44 2.4 °C 2 °C 990.5 hPa Calm     97% 0.5 mm 0 W/m2
01:49 2.4 °C 2 °C 990.5 hPa Calm     97% 0.5 mm 0 W/m2
01:54 2.4 °C 2 °C 990.2 hPa Calm     97% 0.5 mm 0 W/m2
01:59 2.5 °C 2.1 °C 990.2 hPa Calm     97% 0.5 mm 0 W/m2
02:04 2.5 °C 2.1 °C 990.2 hPa ESE 1.4 km/h 1.6 km/h 97% 0.5 mm 0 W/m2
02:09 2.6 °C 2.2 °C 990.2 hPa Calm     97% 0.5 mm 0 W/m2
02:14 2.6 °C 2.2 °C 990.2 hPa Calm     97% 0.5 mm 0 W/m2
02:19 2.6 °C 2.2 °C 990.2 hPa Calm     97% 0.2 mm 0 W/m2
02:24 2.6 °C 2.2 °C 990.2 hPa Calm     97% 0.2 mm 0 W/m2
02:29 2.6 °C 2.2 °C 989.8 hPa ESE 1.4 km/h 3.2 km/h 97% 0.2 mm 0 W/m2
02:34 2.6 °C 2.2 °C 989.8 hPa Calm     97% 0.2 mm 0 W/m2
02:39 2.6 °C 2.2 °C 989.8 hPa Calm   3.2 km/h 97% 0.2 mm 0 W/m2
02:44 2.6 °C 2.2 °C 989.8 hPa Calm     97% 0.2 mm 0 W/m2
02:49 2.7 °C 2.3 °C 989.8 hPa Calm     97% 0.2 mm 0 W/m2
02:54 2.7 °C 2.3 °C 989.8 hPa Calm     97% 0.0 mm 0 W/m2
02:59 2.7 °C 2.4 °C 989.8 hPa Calm     98% 0.0 mm 0 W/m2
03:04 2.7 °C 2.4 °C 989.8 hPa Calm     98% 0.0 mm 0 W/m2
03:09 2.7 °C 2.4 °C 989.8 hPa Calm     98% 0.2 mm 0 W/m2
03:14 2.7 °C 2.4 °C 989.5 hPa Calm     98% 0.2 mm 0 W/m2
03:19 2.8 °C 2.5 °C 989.5 hPa Calm     98% 0.2 mm 0 W/m2
03:24 2.8 °C 2.5 °C 989.5 hPa Calm     98% 0.5 mm 0 W/m2
03:29 2.8 °C 2.5 °C 989.5 hPa Calm   1.6 km/h 98% 0.5 mm 0 W/m2
03:34 2.8 °C 2.5 °C 989.5 hPa Calm     98% 0.5 mm 0 W/m2
03:39 2.8 °C 2.5 °C 989.5 hPa Calm   1.6 km/h 98% 0.5 mm 0 W/m2
03:44 2.8 °C 2.5 °C 989.2 hPa Calm     98% 0.5 mm 0 W/m2
03:49 2.8 °C 2.5 °C 989.5 hPa Calm     98% 0.5 mm 0 W/m2
Juneau County Weather
Compliments of Weather Underground - 4 mb